#timestamp,LO_Frequency,Hit 
1616256015.2,286046998.5,N
1616256035.0,286046998.1,N
1616256035.9,286046998.1,P
1616256055.8,286046999.8,P
1616256075.6,286047002.2,N
1616256095.4,286047001.9,N
1616256115.2,286047000.4,N
1616256135.1,286047002.1,N
1616256136.0,286047002.1,N
1616256155.8,286047000.9,N
1616256175.6,286047001.5,N
1616256195.5,286047002.2,N
1616256215.3,286047004.4,N
1616256235.1,286047003.9,N
1616256255.9,286047003.2,N
1616256275.7,286047005.9,P
1616256295.6,286047003.9,N
1616256315.4,286047005.8,P
1616256335.2,286047005.1,N
1616256355.0,286047004.9,N
1616256356.0,286047004.9,P
1616256375.8,286047001.4,P
1616256395.6,286047003.3,N
1616256415.5,286047003.1,N
1616256435.3,286047004.0,P
1616256455.1,286047000.9,P
1616256475.9,286047000.2,N
1616256495.7,286047001.6,N
1616256515.5,286047002.1,N
1616256535.4,286047001.7,N
1616256555.2,286047001.8,N
1616256575.0,286047003.9,P
1616256575.9,286047003.9,P
1616256595.8,286047002.5,N
1616256615.6,286047002.6,P
1616256635.4,286046998.2,P
1616256655.3,286046998.1,N
1616256675.1,286047000.9,N
1616256695.8,286047000.0,N
1616256715.7,286047000.6,N
1616256735.5,286047001.1,N
1616256755.3,286046998.6,N
1616256775.2,286046998.1,N
1616256795.0,286047001.1,N
1616256795.9,286047001.1,N
1616256815.7,286046998.5,N
1616256835.6,286047000.5,N
1616256855.4,286046999.7,N
1616256875.2,286047000.9,N
1616256895.1,286047000.5,N
1616256896.0,286047000.5,N
1616256915.8,286047000.0,N
1616256935.6,286046999.7,N
1616256955.5,286047000.1,N
1616256975.3,286046999.9,N
1616256995.1,286047000.6,N
1616257015.9,286047001.9,N
1616257035.7,286047000.0,N
1616257055.5,286046999.7,N
1616257075.4,286047001.8,N
1616257095.2,286047003.9,P
1616257115.0,286047001.5,N
1616257115.9,286047001.5,N
1616257135.8,286047004.3,P
1616257155.6,286047001.5,N
1616257175.4,286047002.8,N
1616257195.3,286047002.1,N
1616257215.1,286047004.3,P
1616257235.9,286047000.4,N
1616257255.7,286047000.5,N
1616257275.5,286046999.8,N
1616257295.4,286047000.9,N
1616257315.2,286047000.2,N
1616257335.0,286047002.8,N
1616257335.9,286047002.8,N
1616257355.7,286047000.8,N
1616257375.6,286047000.6,N
1616257395.4,286046998.1,N
1616257415.2,286047000.9,N
1616257435.1,286047000.6,N
1616257436.0,286047000.6,N
1616257455.8,286047001.2,N
1616257475.6,286046999.3,N
1616257495.5,286046996.6,N
1616257515.3,286046999.5,N
1616257535.1,286046998.4,N
1616257555.9,286046996.8,N
1616257575.7,286046997.8,N
1616257595.5,286046995.4,N
1616257615.4,286046997.9,N
1616257635.2,286046995.0,N
1616257655.0,286046995.6,N
1616257655.9,286046995.6,N
1616257675.8,286046996.4,N
1616257695.6,286046996.2,N
1616257715.4,286046996.3,N
1616257735.3,286046993.5,N
1616257755.1,286046993.8,N
1616257756.0,286046993.8,N
1616257775.8,286046992.1,N
1616257795.7,286046992.3,N
1616257815.5,286046992.2,N
1616257835.3,286046992.0,N
1616257855.2,286046992.9,N
1616257875.9,286046991.3,N
1616257895.7,286046992.9,N
1616257915.6,286046991.0,N
1616257935.4,286046991.1,N
1616257955.2,286046991.5,N
1616257975.1,286046989.0,P
1616257976.0,286046989.0,P
1616257995.8,286046993.6,N
1616258015.6,286046994.4,N
1616258035.5,286046994.2,N
1616258055.3,286046992.9,N
1616258075.1,286046992.5,P
1616258095.9,286047000.7,P
1616258115.7,286046998.4,N
1616258135.5,286046999.0,N
1616258155.4,286046999.4,N
1616258175.2,286046997.8,N
1616258195.0,286046997.7,N
1616258195.9,286046997.7,N
1616258215.8,286046995.3,N
1616258235.6,286046997.6,N
1616258255.4,286046997.1,N
1616258275.3,286046994.9,N
1616258295.1,286046995.7,N
1616258296.0,286046995.7,N
1616258315.8,286046996.3,N
1616258335.7,286046994.2,N
1616258355.5,286046993.6,N
1616258375.3,286046994.1,N
1616258395.2,286046994.2,N
1616258415.9,286046992.7,P
1616258435.7,286046995.4,N
1616258455.6,286046995.6,N
1616258475.4,286046993.3,P
1616258495.2,286046998.1,N
1616258515.1,286046996.6,N
1616258516.0,286046996.6,N
1616258535.8,286046997.1,N
1616258555.6,286046998.9,N
1616258575.5,286046996.7,N
1616258595.3,286046997.2,N
1616258615.1,286046997.5,N
1616258635.9,286046995.0,P
1616258655.7,286046998.7,N
1616258675.5,286046998.3,N
1616258695.4,286046999.5,N
1616258715.2,286046996.5,N
1616258735.0,286046997.1,N
1616258735.9,286046997.1,N
1616258755.8,286046996.8,N
1616258775.6,286046995.3,P
1616258795.4,286046998.8,N
1616258815.3,286046999.3,N
1616258835.1,286046997.1,N
1616258855.8,286046997.8,N
1616258875.7,286046996.6,N
1616258895.5,286046997.1,N
1616258915.3,286046995.2,P
1616258935.2,286046998.7,N
1616258955.0,286046999.5,N
1616258955.9,286046999.5,N
1616258975.7,286046996.9,N
1616258995.6,286046997.4,N
1616259015.4,286046997.8,N
1616259035.2,286046997.7,N
1616259055.1,286046997.3,N
1616259056.0,286046997.3,N
1616259075.8,286046995.2,P
1616259095.6,286046999.6,N
1616259115.5,286046996.6,N
1616259135.3,286046997.6,N
1616259155.2,286046995.0,P
1616259175.9,286046999.0,N
1616259195.7,286046999.3,N
1616259215.6,286046997.1,N
1616259235.4,286046996.5,N
1616259255.2,286046997.3,N
1616259275.1,286046997.4,N
1616259276.0,286046997.4,N
1616259295.8,286046996.7,N
1616259315.6,286046995.1,P
1616259335.5,286046999.2,N
1616259355.3,286046999.3,N
1616259375.1,286046999.2,N
1616259395.9,286046997.8,N
1616259415.7,286046997.3,N
1616259435.5,286046998.0,N
1616259455.4,286046995.1,P
1616259475.2,286046999.0,N
1616259495.0,286046999.4,N
1616259495.9,286046999.4,N
1616259515.8,286046996.8,N
1616259535.6,286046997.2,N
1616259555.4,286046995.2,P
1616259575.3,286046998.7,N
1616259595.1,286046996.5,N
1616259596.0,286046996.5,N
